Location: Newark
(44.2003°N, 3.2583°E)
Time: 08:22:50
(UTC+00:00)

Explorer 7 - Pass Details

Date: 19 October 2019
Orbit: 485 x 680 km, 50.3° (Epoch: 21 November)

Event Time Altitude Azimuth Distance (km) Brightness Sun altitude
Rises 18:16:22 0° 289° (WNW) 2,648 11.8 -14.9°
Reaches altitude 10° 18:18:56 10° 272° (W) 1,789 10.8 -15.4°
Maximum altitude 18:21:59 21° 224° (SW) 1,286 9.2 -16.0°
Drops below altitude 10° 18:25:09 10° 175° (S) 1,869 9.5 -16.5°
Enters shadow 18:27:29 - 161° (SSE) 2,652 10.1 -16.9°
